San Juan, PR

1:30 PM AST on October 17, 2017 (GMT -0400)
Luis Munoz Marin International

Weather History for TJSJ - October, 2011

Change the Weather History Date:

Sunday, October 16, 2011

  Actual Average Record
Temperature  
Mean Temperature 82 °F 83 °F  
Max Temperature 89 °F 89 °F 94 °F (1994)
Min Temperature 75 °F 77 °F 71 °F (1964)
Degree Days  
Heating Degree Days 0 0  
Month to date heating degree days 0 0  
Since 1 July heating degree days 0 0  
Cooling Degree Days 17 18  
Month to date cooling degree days 283 288  
Year to date cooling degree days 4494 4700  
Growing Degree Days 32 (Base 50)    
Moisture  
Dew Point 72 °F    
Average Humidity 76    
Maximum Humidity 88    
Minimum Humidity 63    
Precipitation  
Precipitation 0.36 in 0.18 in 1.93 in (2017)
Month to date precipitation 1.66 2.62  
Year to date precipitation 71.37 42.01  
Snow  
Snow 0.00 in 0.00 in - ()
Month to date snowfall 0.0 0.0  
Since 1 July snowfall 0.0 0.0  
Since 1 September snowfall 0.0 0.0  
Snow Depth 0.00 in    
Sea Level Pressure  
Sea Level Pressure 29.92 in    
Wind  
Wind Speed 6 mph (East)    
Max Wind Speed 22 mph    
Max Gust Speed 28 mph    
Visibility 10 miles    
Events Rain    
T = Trace of Precipitation, MM = Missing Value Source: NWS Daily Summary

Daily Weather History Graph

Daily Weather History Graph

Search for Another Location

Airport or City:

Trip Planner

Search our weather history database for the weather conditions in past years. The results will help you decide how hot, cold, wet, or windy it might be!

Date:

Astronomy

Oct. 16, 2011 Rise Set
Actual Time 6:17 AM AST 6:00 PM AST
Civil Twilight 5:55 AM AST 6:22 PM AST
Nautical Twilight 5:30 AM AST 6:48 PM AST
Astronomical Twilight 5:05 AM AST 7:13 PM AST
Moon 9:17 PM AST (10/16) 9:57 AM AST (10/16)
Length of Visible Light 12h 27m
Length of Day
11h 43m
Waning Gibbous, 82% of the Moon is Illuminated
Oct 16
Waning Gibbous
Oct 19
Last Quarter
Oct 26
New
Nov 2
First Quarter
Nov 10
Full

Hourly Weather History & Observations

Time (AST) Temp. Heat Index Dew Point Humidity Pressure Visibility Wind Dir Wind Speed Gust Speed Precip Events Conditions
12:56 AM 80.1 °F 83.8 °F 72.0 °F 76% 29.94 in 10.0 mi South 3.5 mph - N/A   Scattered Clouds
1:56 AM 79.0 °F - 72.0 °F 79% 29.93 in 10.0 mi Calm Calm - N/A   Scattered Clouds
2:56 AM 79.0 °F - 70.0 °F 74% 29.92 in 10.0 mi Calm Calm - 0.00 in   Scattered Clouds
3:56 AM 79.0 °F - 72.0 °F 79% 29.91 in 10.0 mi Calm Calm - N/A   Scattered Clouds
4:56 AM 79.0 °F - 73.0 °F 82% 29.92 in 10.0 mi Calm Calm - N/A   Partly Cloudy
5:56 AM 77.0 °F - 73.0 °F 88% 29.93 in 10.0 mi Calm Calm - N/A   Partly Cloudy
6:56 AM 78.1 °F - 73.0 °F 84% 29.94 in 10.0 mi Calm Calm - N/A   Partly Cloudy
7:56 AM 82.0 °F 86.7 °F 72.0 °F 71% 29.95 in 10.0 mi Calm Calm - N/A   Partly Cloudy
8:56 AM 82.9 °F 88.8 °F 73.0 °F 72% 29.96 in 10.0 mi ENE 4.6 mph - N/A   Partly Cloudy
9:56 AM 84.0 °F 91.2 °F 73.9 °F 72% 29.97 in 10.0 mi NE 10.4 mph - N/A   Scattered Clouds
10:56 AM 82.0 °F 86.7 °F 72.0 °F 71% 29.96 in 10.0 mi East 10.4 mph - N/A   Scattered Clouds
11:56 AM 84.0 °F 90.2 °F 73.0 °F 69% 29.94 in 10.0 mi East 15.0 mph - 0.01 in   Scattered Clouds
12:56 PM 88.0 °F 96.5 °F 73.9 °F 63% 29.91 in 10.0 mi ENE 16.1 mph - N/A   Scattered Clouds
1:56 PM 84.9 °F 91.4 °F 73.0 °F 67% 29.89 in 10.0 mi East 16.1 mph 27.6 mph N/A   Scattered Clouds
2:56 PM 84.0 °F 90.2 °F 73.0 °F 69% 29.87 in 10.0 mi East 12.7 mph - N/A   Scattered Clouds
3:56 PM 84.9 °F 91.4 °F 73.0 °F 67% 29.86 in 10.0 mi East 17.3 mph - N/A   Scattered Clouds
4:56 PM 82.0 °F 85.9 °F 70.0 °F 67% 29.86 in 10.0 mi ESE 10.4 mph - N/A   Scattered Clouds
5:56 PM 82.0 °F 86.3 °F 71.1 °F 69% 29.87 in 10.0 mi East 8.1 mph - N/A   Mostly Cloudy
6:56 PM 80.1 °F 83.8 °F 72.0 °F 76% 29.88 in 10.0 mi ESE 3.5 mph - N/A   Scattered Clouds
7:56 PM 75.9 °F - 73.0 °F 91% 29.90 in 10.0 mi SE 6.9 mph - 0.28 in Rain Light Rain
8:56 PM 77.0 °F - 73.0 °F 88% 29.91 in 10.0 mi SSE 4.6 mph - 0.07 in Rain Light Rain
9:56 PM 78.1 °F - 71.1 °F 79% 29.93 in 10.0 mi Calm Calm - 0.00 in   Scattered Clouds
10:56 PM 78.1 °F - 73.0 °F 84% 29.93 in 10.0 mi Calm Calm - N/A   Scattered Clouds
11:56 PM 78.1 °F - 73.9 °F 87% 29.92 in 10.0 mi Calm Calm - N/A   Mostly Cloudy